CW6532 Weather Reports


Display with metric or nautical units.
time (UTC)temp
F
wind
direction
speed
MPH
gust
MPH
rain 1hr
in
rain 24hr
in
rain mn
in
humidity
%
barometer
mb
20190119211311 69 229 2.0 6.0 0.00 0.00 0.00 12 1022.6
20190119210323 70 269 2.0 4.0 0.00 0.00 0.00 11 1022.6
20190119205315 68 270 3.0 6.0 0.00 0.00 0.00 12 1022.9
20190119203317 68 199 1.0 4.0 0.00 0.00 0.00 13 1023.1
20190119202329 67 252 3.0 7.0 0.00 0.00 0.00 13 1023.4
20190119201320 66 248 3.0 6.0 0.00 0.00 0.00 13 1023.6
20190119200315 66 241 3.0 7.0 0.00 0.00 0.00 13 1023.8
20190119195327 66 286 4.0 9.0 0.00 0.00 0.00 14 1024.0
20190119194319 65 252 5.0 10.0 0.00 0.00 0.00 14 1024.1
20190119193310 65 271 7.0 10.0 0.00 0.00 0.00 14 1024.4
20190119192326 64 254 6.0 10.0 0.00 0.00 0.00 15 1024.4
20190119191317 63 302 3.0 8.0 0.00 0.00 0.00 16 1024.7
20190119190329 64 242 5.0 9.0 0.00 0.00 0.00 16 1024.7
20190119185321 64 286 1.0 4.0 0.00 0.00 0.00 17 1024.8
20190119184316 62 277 2.0 6.0 0.00 0.00 0.00 18 1025.0
20190119183328 62 277 3.0 8.0 0.00 0.00 0.00 20 1025.1
20190119182319 61 255 3.0 9.0 0.00 0.00 0.00 21 1025.2
20190119181314 60 244 2.0 8.0 0.00 0.00 0.00 24 1025.3
20190119180326 60 261 3.0 6.0 0.00 0.00 0.00 23 1025.5
20190119175317 59 297 3.0 6.0 0.00 0.00 0.00 24 1025.5
20190119174328 58 319 3.0 6.0 0.00 0.00 0.00 24 1025.5
20190119173324 58 273 4.0 9.0 0.00 0.00 0.00 26 1025.4
20190119172315 57 238 5.0 8.0 0.00 0.00 0.00 26 1025.3
20190119171326 57 257 3.0 5.0 0.00 0.00 0.00 28 1025.3
20190119170322 57 303 0.0 2.0 0.00 0.00 0.00 27 1025.5
20190119165314 55 303 2.0 3.0 0.00 0.00 0.00 30 1025.6
20190119164324 55 311 1.0 3.0 0.00 0.00 0.00 30 1025.8
20190119163316 54 82 0.0 3.0 0.00 0.00 0.00 31 1025.8
20190119162312 53 84 2.0 4.0 0.00 0.00 0.00 31 1025.8
20190119161323 52 78 4.0 6.0 0.00 0.00 0.00 38 1025.9
20190119160315 52 71 3.0 8.0 0.00 0.00 0.00 46 1025.7
20190119155310 51 294 2.0 7.0 0.00 0.00 0.00 38 1025.5
20190119154322 48 250 3.0 9.0 0.00 0.00 0.00 46 1025.1
20190119153314 46 247 4.0 8.0 0.00 0.00 0.00 57 1025.0
20190119152326 45 230 6.0 7.0 0.00 0.00 0.00 63 1024.8
20190119151321 44 222 0.0 8.0 0.00 0.00 0.00 67 1024.8
20190119150313 43 223 5.0 6.0 0.00 0.00 0.00 71 1024.7
20190119145325 44 196 3.0 8.0 0.00 0.00 0.00 69 1024.7
20190119144316 43 207 5.0 8.0 0.00 0.00 0.00 75 1024.7
20190119143312 43 224 7.0 8.0 0.00 0.00 0.00 76 1024.5
20190119142323 44 217 4.0 5.0 0.00 0.00 0.00 72 1024.6
20190119141314 46 192 4.0 7.0 0.00 0.00 0.00 47 1024.6
20190119140310 47 34 2.0 5.0 0.00 0.00 0.00 42 1024.4
20190119135322 48 42 3.0 7.0 0.00 0.00 0.00 34 1024.2
20190119134313 48 83 5.0 9.0 0.00 0.00 0.00 34 1024.2
20190119132319 49 43 10.0 18.0 0.00 0.00 0.00 32 1024.0
20190119131310 49 20 10.0 18.0 0.00 0.00 0.00 32 1024.1
20190119130322 49 53 10.0 14.0 0.00 0.00 0.00 34 1024.0
20190119125318 48 90 4.0 15.0 0.00 0.00 0.00 36 1023.8
20190119124328 48 49 8.0 14.0 0.00 0.00 0.00 38 1023.9
20190119123320 46 80 3.0 8.0 0.00 0.00 0.00 44 1023.8
20190119122312 46 290 2.0 4.0 0.00 0.00 0.00 50 1023.9
20190119121327 45 290 1.0 2.0 0.00 0.00 0.00 55 1024.1
20190119120319 45 290 0.0 2.0 0.00 0.00 0.00 74 1024.0
20190119115311 46 290 1.0 2.0 0.00 0.00 0.00 73 1024.0
20190119114322 46 290 2.0 3.0 0.00 0.00 0.00 72 1024.1
20190119113319 46 290 2.0 5.0 0.00 0.00 0.00 72 1023.9
20190119112310 47 291 3.0 4.0 0.00 0.00 0.00 63 1023.9
20190119111321 47 291 2.0 3.0 0.00 0.00 0.00 65 1024.0
20190119110317 47 291 3.0 4.0 0.00 0.00 0.00 60 1024.1
20190119105329 48 291 0.0 2.0 0.00 0.00 0.00 57 1024.1
20190119104321 49 291 1.0 2.0 0.00 0.00 0.00 56 1024.1
20190119103312 49 291 2.0 4.0 0.00 0.00 0.00 52 1024.2
20190119102329 50 291 1.0 3.0 0.00 0.00 0.00 50 1024.1
20190119101319 49 291 1.0 2.0 0.00 0.00 0.00 50 1024.0
20190119100311 49 291 0.0 2.0 0.00 0.00 0.00 53 1024.0
20190119095327 49 291 1.0 5.0 0.00 0.00 0.00 54 1024.1
20190119094317 48 291 3.0 8.0 0.00 0.00 0.00 55 1024.1
20190119093329 48 237 4.0 9.0 0.00 0.00 0.00 60 1023.9
20190119092321 51 21 1.0 5.0 0.00 0.00 0.00 38 1023.8
20190119091315 51 34 3.0 6.0 0.00 0.00 0.00 38 1023.8
20190119090327 52 29 3.0 9.0 0.00 0.00 0.00 39 1023.8
20190119085318 52 57 5.0 10.0 0.00 0.00 0.00 38 1023.8
20190119084312 53 40 5.0 10.0 0.00 0.00 0.00 39 1023.8
20190119083324 52 30 5.0 8.0 0.00 0.00 0.00 41 1023.7
20190119082316 53 24 5.0 12.0 0.00 0.00 0.00 38 1023.6
20190119081326 52 69 6.0 10.0 0.00 0.00 0.00 42 1023.6
20190119080322 50 66 3.0 5.0 0.00 0.00 0.00 56 1023.7
20190119075314 50 125 2.0 7.0 0.00 0.00 0.00 73 1024.0
20190119074324 50 180 3.0 7.0 0.00 0.00 0.00 76 1024.1
20190119073317 52 184 4.0 6.0 0.00 0.00 0.00 71 1024.2
20190119072312 51 43 4.0 9.0 0.00 0.00 0.00 72 1023.9
20190119071323 51 50 1.0 7.0 0.00 0.00 0.00 74 1023.8
20190119070314 51 205 3.0 8.0 0.00 0.00 0.00 77 1023.7
20190119065310 51 180 7.0 8.0 0.00 0.00 0.00 78 1023.6
20190119064322 51 164 6.0 8.0 0.00 0.00 0.00 78 1023.6
20190119063314 50 192 6.0 8.0 0.00 0.00 0.00 78 1023.4
20190119062326 51 199 6.0 9.0 0.00 0.00 0.00 77 1023.3
20190119061321 51 196 7.0 9.0 0.00 0.00 0.00 76 1023.2
20190119060313 51 215 7.0 11.0 0.00 0.00 0.00 76 1023.1
20190119055325 51 192 8.0 11.0 0.00 0.00 0.00 78 1023.2
20190119054320 50 201 6.0 8.0 0.00 0.00 0.00 79 1023.2
20190119053312 51 209 5.0 9.0 0.00 0.00 0.00 78 1023.0
20190119052324 51 205 7.0 9.0 0.00 0.00 0.00 76 1022.7
20190119051315 51 184 5.0 7.0 0.00 0.00 0.00 77 1022.8
20190119050311 51 207 6.0 8.0 0.00 0.00 0.00 78 1022.8
20190119045323 50 159 6.0 8.0 0.00 0.00 0.00 78 1022.8
20190119044314 51 225 6.0 9.0 0.00 0.00 0.00 77 1022.7
20190119043310 51 195 8.0 9.0 0.00 0.00 0.00 76 1022.4
20190119042322 51 175 6.0 9.0 0.00 0.00 0.00 76 1022.4
20190119041313 52 198 8.0 10.0 0.00 0.00 0.00 73 1022.2
20190119040326 52 181 6.0 8.0 0.00 0.00 0.00 73 1022.4
20190119035321 53 175 6.0 8.0 0.00 0.00 0.00 71 1022.3
20190119034312 53 178 5.0 7.0 0.00 0.00 0.00 71 1022.3
20190119033324 54 178 2.0 7.0 0.00 0.00 0.00 69 1022.2
20190119032315 54 219 4.0 9.0 0.00 0.00 0.00 69 1022.0
20190119031329 54 200 5.0 8.0 0.00 0.00 0.00 68 1021.9
20190119030321 54 137 4.0 10.0 0.00 0.00 0.00 69 1021.9
20190119025332 54 126 5.0 10.0 0.00 0.00 0.00 68 1021.7
20190119024324 55 222 6.0 11.0 0.00 0.00 0.00 67 1021.3
20190119023315 55 261 7.0 10.0 0.00 0.00 0.00 65 1021.2
20190119022327 56 280 4.0 12.0 0.00 0.00 0.00 64 1021.1
20190119021317 56 254 7.0 12.0 0.00 0.00 0.00 64 1020.8
20190119020313 56 295 7.0 13.0 0.00 0.00 0.00 63 1020.6
20190119015325 56 296 10.0 19.0 0.00 0.00 0.00 65 1020.4
20190119014315 56 281 11.0 15.0 0.00 0.00 0.00 61 1020.4
20190119013311 57 264 6.0 12.0 0.00 0.00 0.00 60 1020.4
20190119012323 57 267 8.0 13.0 0.00 0.00 0.00 59 1020.3
20190119011314 57 265 7.0 12.0 0.00 0.00 0.00 57 1020.1
20190119010325 58 297 9.0 15.0 0.00 0.00 0.00 56 1020.1
20190119005321 58 276 11.0 16.0 0.00 0.00 0.00 54 1020.0
20190119004311 58 268 7.0 15.0 0.00 0.00 0.00 53 1019.8
20190118230315 62 315 13.0 18.0 0.00 0.00 0.00 45 1019.4
20190118224318 63 278 12.0 17.0 0.00 0.00 0.00 46 1019.4
20190118222326 63 276 12.0 19.0 0.00 0.00 0.00 44 1019.0
20190118221316 63 309 15.0 22.0 0.00 0.00 0.00 44 1019.1
20190118220328 63 309 10.0 16.0 0.00 0.00 0.00 45 1019.2
20190118215324 63 259 9.0 18.0 0.00 0.00 0.00 45 1019.2
20190118214315 64 285 8.0 15.0 0.00 0.00 0.00 44 1019.3
20190118213327 63 246 9.0 19.0 0.00 0.00 0.00 46 1019.2
20190118212319 63 284 10.0 18.0 0.00 0.00 0.00 45 1019.1